iso_date,Year,Hour,Min,DOY,POS_DOY,Lat,Lon,BP,Ts,Ta,has_bp,has_ts,has_ta,BuoyID,Buoy_Type,Buoy_Owner,Logistics,Hemisphere
2021-11-23T16:00:02Z,2021,16,0,327.6667,327.6667,80.264,13.998,1019.1,3.01,-999.0,yes,yes,no,300234068341230,BD2GHI,AOML,ALLIANCE,North
2021-11-23T16:59:57Z,2021,17,0,327.7083,327.7083,80.259,14.051,1018.7,3.07,-999.0,yes,yes,no,300234068341230,BD2GHI,AOML,ALLIANCE,North
2021-11-23T18:01:00Z,2021,18,1,327.7507,327.7507,80.254,14.107,1018.5,3.11,-999.0,yes,yes,no,300234068341230,BD2GHI,AOML,ALLIANCE,North
2021-11-23T19:00:02Z,2021,19,0,327.7917,327.7917,80.25,14.146,1018.0,3.15,-999.0,yes,yes,no,300234068341230,BD2GHI,AOML,ALLIANCE,North
2021-11-23T19:59:57Z,2021,20,0,327.8333,327.8333,80.245,14.178,1019.2,3.15,-999.0,yes,yes,no,300234068341230,BD2GHI,AOML,ALLIANCE,North
2021-11-23T21:02:00Z,2021,21,2,327.8764,327.8764,80.241,14.16,1020.0,3.16,-999.0,yes,yes,no,300234068341230,BD2GHI,AOML,ALLIANCE,North
2021-11-23T22:03:56Z,2021,22,4,327.9194,327.9194,80.24,14.14,1020.6,3.11,-999.0,yes,yes,no,300234068341230,BD2GHI,AOML,ALLIANCE,North
2021-11-23T23:01:58Z,2021,23,2,327.9597,327.9597,80.239,14.095,1021.0,3.08,-999.0,yes,yes,no,300234068341230,BD2GHI,AOML,ALLIANCE,North
2021-11-24T00:00:00Z,2021,0,0,328.0,328.0,80.238,14.045,1021.6,3.08,-999.0,yes,yes,no,300234068341230,BD2GHI,AOML,ALLIANCE,North
2021-11-24T01:00:02Z,2021,1,0,328.0417,328.0417,80.24,13.999,1022.1,3.04,-999.0,yes,yes,no,300234068341230,BD2GHI,AOML,ALLIANCE,North
2021-11-24T01:59:57Z,2021,2,0,328.0833,328.0833,80.243,13.957,1022.6,3.03,-999.0,yes,yes,no,300234068341230,BD2GHI,AOML,ALLIANCE,North
2021-11-24T03:00:00Z,2021,3,0,328.125,328.125,80.249,13.929,1023.1,3.01,-999.0,yes,yes,no,300234068341230,BD2GHI,AOML,ALLIANCE,North
2021-11-24T04:00:02Z,2021,4,0,328.1667,328.1667,80.256,13.921,1022.7,2.95,-999.0,yes,yes,no,300234068341230,BD2GHI,AOML,ALLIANCE,North
2021-11-24T04:59:57Z,2021,5,0,328.2083,328.2083,80.262,13.931,1022.9,2.98,-999.0,yes,yes,no,300234068341230,BD2GHI,AOML,ALLIANCE,North
2021-11-24T06:02:00Z,2021,6,2,328.2514,328.2514,80.268,13.959,1022.8,2.97,-999.0,yes,yes,no,300234068341230,BD2GHI,AOML,ALLIANCE,North
2021-11-24T07:00:02Z,2021,7,0,328.2917,328.2917,80.273,13.995,1022.8,2.93,-999.0,yes,yes,no,300234068341230,BD2GHI,AOML,ALLIANCE,North
2021-11-24T07:59:57Z,2021,8,0,328.3333,328.3333,80.277,14.037,1023.0,2.96,-999.0,yes,yes,no,300234068341230,BD2GHI,AOML,ALLIANCE,North
2021-11-24T09:00:00Z,2021,9,0,328.375,328.375,80.279,14.076,1023.0,2.94,-999.0,yes,yes,no,300234068341230,BD2GHI,AOML,ALLIANCE,North
2021-11-24T10:00:02Z,2021,10,0,328.4167,328.4167,80.28,14.115,1022.6,2.95,-999.0,yes,yes,no,300234068341230,BD2GHI,AOML,ALLIANCE,North
2021-11-24T11:03:59Z,2021,11,4,328.4611,328.4611,80.281,14.144,1022.5,2.91,-999.0,yes,yes,no,300234068341230,BD2GHI,AOML,ALLIANCE,North
2021-11-24T12:00:00Z,2021,12,0,328.5,328.5,80.281,14.165,1022.1,2.91,-999.0,yes,yes,no,300234068341230,BD2GHI,AOML,ALLIANCE,North
2021-11-24T13:00:02Z,2021,13,0,328.5417,328.5417,80.281,14.186,1021.5,2.89,-999.0,yes,yes,no,300234068341230,BD2GHI,AOML,ALLIANCE,North
2021-11-24T14:03:59Z,2021,14,4,328.5861,328.5861,-90.0,-180.0,1020.8,2.82,-999.0,yes,yes,no,300234068341230,BD2GHI,AOML,ALLIANCE,North
2021-11-24T15:04:01Z,2021,15,4,328.6278,328.6278,80.279,14.235,1020.2,2.8,-999.0,yes,yes,no,300234068341230,BD2GHI,AOML,ALLIANCE,North
2021-11-24T16:02:03Z,2021,16,2,328.6681,328.6681,80.277,14.256,1019.7,2.86,-999.0,yes,yes,no,300234068341230,BD2GHI,AOML,ALLIANCE,North
2021-11-24T17:03:59Z,2021,17,4,328.7111,328.7111,-90.0,-180.0,1019.2,2.8,-999.0,yes,yes,no,300234068341230,BD2GHI,AOML,ALLIANCE,North
2021-11-24T18:04:01Z,2021,18,4,328.7528,328.7528,80.273,14.293,1018.4,2.77,-999.0,yes,yes,no,300234068341230,BD2GHI,AOML,ALLIANCE,North
2021-11-24T19:00:02Z,2021,19,0,328.7917,328.7917,80.271,14.299,1017.9,2.76,-999.0,yes,yes,no,300234068341230,BD2GHI,AOML,ALLIANCE,North
2021-11-24T19:59:57Z,2021,20,0,328.8333,328.8333,80.268,14.292,1017.2,2.77,-999.0,yes,yes,no,300234068341230,BD2GHI,AOML,ALLIANCE,North
2021-11-24T21:04:01Z,2021,21,4,328.8778,328.8778,80.264,14.273,1016.6,2.75,-999.0,yes,yes,no,300234068341230,BD2GHI,AOML,ALLIANCE,North
2021-11-24T22:01:03Z,2021,22,1,328.9174,328.9174,80.26,14.239,1016.0,2.73,-999.0,yes,yes,no,300234068341230,BD2GHI,AOML,ALLIANCE,North
2021-11-24T22:59:57Z,2021,23,0,328.9583,328.9583,80.258,14.196,1015.2,2.74,-999.0,yes,yes,no,300234068341230,BD2GHI,AOML,ALLIANCE,North
2021-11-25T00:00:00Z,2021,0,0,329.0,329.0,80.256,14.146,1014.4,2.75,-999.0,yes,yes,no,300234068341230,BD2GHI,AOML,ALLIANCE,North
2021-11-25T01:03:56Z,2021,1,4,329.0444,329.0444,80.254,14.088,1013.6,2.74,-999.0,yes,yes,no,300234068341230,BD2GHI,AOML,ALLIANCE,North
2021-11-25T02:03:59Z,2021,2,4,329.0861,329.0861,80.254,14.051,1012.8,2.73,-999.0,yes,yes,no,300234068341230,BD2GHI,AOML,ALLIANCE,North
2021-11-25T03:00:00Z,2021,3,0,329.125,329.125,80.255,14.015,1012.0,2.74,-999.0,yes,yes,no,300234068341230,BD2GHI,AOML,ALLIANCE,North
2021-11-25T04:00:02Z,2021,4,0,329.1667,329.1667,80.257,13.989,1011.2,2.71,-999.0,yes,yes,no,300234068341230,BD2GHI,AOML,ALLIANCE,North
2021-11-25T04:59:57Z,2021,5,0,329.2083,329.2083,80.26,13.983,1010.4,2.7,-999.0,yes,yes,no,300234068341230,BD2GHI,AOML,ALLIANCE,North
2021-11-25T06:00:00Z,2021,6,0,329.25,329.25,80.264,13.993,1009.7,2.7,-999.0,yes,yes,no,300234068341230,BD2GHI,AOML,ALLIANCE,North
2021-11-25T07:00:02Z,2021,7,0,329.2917,329.2917,80.266,14.017,1009.1,2.68,-999.0,yes,yes,no,300234068341230,BD2GHI,AOML,ALLIANCE,North
2021-11-25T08:00:57Z,2021,8,1,329.334,329.334,80.268,14.052,1008.4,2.68,-999.0,yes,yes,no,300234068341230,BD2GHI,AOML,ALLIANCE,North
2021-11-25T09:00:00Z,2021,9,0,329.375,329.375,80.27,14.09,1007.9,2.69,-999.0,yes,yes,no,300234068341230,BD2GHI,AOML,ALLIANCE,North
2021-11-25T10:00:02Z,2021,10,0,329.4167,329.4167,80.271,14.129,1007.3,2.74,-999.0,yes,yes,no,300234068341230,BD2GHI,AOML,ALLIANCE,North
2021-11-25T12:03:01Z,2021,12,3,329.5021,329.5021,80.268,14.185,1005.8,2.75,-999.0,yes,yes,no,300234068341230,BD2GHI,AOML,ALLIANCE,North
2021-11-25T13:00:02Z,2021,13,0,329.5417,329.5417,80.264,14.219,1004.8,2.75,-999.0,yes,yes,no,300234068341230,BD2GHI,AOML,ALLIANCE,North
2021-11-25T14:03:59Z,2021,14,4,329.5861,329.5861,80.258,14.243,1004.4,2.72,-999.0,yes,yes,no,300234068341230,BD2GHI,AOML,ALLIANCE,North
2021-11-25T15:00:00Z,2021,15,0,329.625,329.625,80.254,14.263,1003.8,2.72,-999.0,yes,yes,no,300234068341230,BD2GHI,AOML,ALLIANCE,North
2021-11-25T18:00:00Z,2021,18,0,329.75,329.75,80.236,14.286,1003.1,2.65,-999.0,yes,yes,no,300234068341230,BD2GHI,AOML,ALLIANCE,North
2021-11-25T19:00:02Z,2021,19,0,329.7917,329.7917,80.229,14.269,1002.9,2.64,-999.0,yes,yes,no,300234068341230,BD2GHI,AOML,ALLIANCE,North
2021-11-25T19:59:57Z,2021,20,0,329.8333,329.8333,80.224,14.238,1002.6,2.6,-999.0,yes,yes,no,300234068341230,BD2GHI,AOML,ALLIANCE,North
2021-11-25T21:04:01Z,2021,21,4,329.8778,329.8778,80.217,14.177,1002.5,2.6,-999.0,yes,yes,no,300234068341230,BD2GHI,AOML,ALLIANCE,North
2021-11-25T22:01:03Z,2021,22,1,329.9174,329.9174,80.213,14.133,1002.2,2.56,-999.0,yes,yes,no,300234068341230,BD2GHI,AOML,ALLIANCE,North
2021-11-25T23:01:58Z,2021,23,2,329.9597,329.9597,80.208,14.058,1002.0,2.58,-999.0,yes,yes,no,300234068341230,BD2GHI,AOML,ALLIANCE,North
2021-11-26T00:00:00Z,2021,0,0,330.0,330.0,80.205,13.979,1001.5,2.54,-999.0,yes,yes,no,300234068341230,BD2GHI,AOML,ALLIANCE,North
2021-11-26T01:02:03Z,2021,1,2,330.0431,330.0431,80.204,13.896,1001.3,2.54,-999.0,yes,yes,no,300234068341230,BD2GHI,AOML,ALLIANCE,North
2021-11-26T01:59:57Z,2021,2,0,330.0833,330.0833,80.203,13.836,1001.0,2.51,-999.0,yes,yes,no,300234068341230,BD2GHI,AOML,ALLIANCE,North
2021-11-26T03:02:00Z,2021,3,2,330.1264,330.1264,80.202,13.76,1001.1,2.51,-999.0,yes,yes,no,300234068341230,BD2GHI,AOML,ALLIANCE,North
2021-11-26T04:00:02Z,2021,4,0,330.1667,330.1667,80.21,13.719,1000.8,2.51,-999.0,yes,yes,no,300234068341230,BD2GHI,AOML,ALLIANCE,North
2021-11-26T04:59:57Z,2021,5,0,330.2083,330.2083,80.216,13.693,1001.4,2.48,-999.0,yes,yes,no,300234068341230,BD2GHI,AOML,ALLIANCE,North
2021-11-26T06:01:00Z,2021,6,1,330.2507,330.2507,80.225,13.69,1002.2,2.48,-999.0,yes,yes,no,300234068341230,BD2GHI,AOML,ALLIANCE,North
2021-11-26T07:00:02Z,2021,7,0,330.2917,330.2917,80.233,13.706,1002.7,2.48,-999.0,yes,yes,no,300234068341230,BD2GHI,AOML,ALLIANCE,North
2021-11-26T08:03:59Z,2021,8,4,330.3361,330.3361,80.241,13.74,1003.4,2.47,-999.0,yes,yes,no,300234068341230,BD2GHI,AOML,ALLIANCE,North
2021-11-26T09:04:01Z,2021,9,4,330.3778,330.3778,-90.0,-180.0,1003.9,2.42,-999.0,yes,yes,no,300234068341230,BD2GHI,AOML,ALLIANCE,North
2021-11-26T10:03:56Z,2021,10,4,330.4194,330.4194,80.253,13.816,1004.7,2.43,-999.0,yes,yes,no,300234068341230,BD2GHI,AOML,ALLIANCE,North
2021-11-26T11:03:59Z,2021,11,4,330.4611,330.4611,80.253,13.864,1005.2,2.41,-999.0,yes,yes,no,300234068341230,BD2GHI,AOML,ALLIANCE,North
2021-11-26T12:01:00Z,2021,12,1,330.5007,330.5007,80.254,13.9,1005.4,2.44,-999.0,yes,yes,no,300234068341230,BD2GHI,AOML,ALLIANCE,North
2021-11-26T13:00:02Z,2021,13,0,330.5417,330.5417,80.253,13.929,1005.3,2.41,-999.0,yes,yes,no,300234068341230,BD2GHI,AOML,ALLIANCE,North
2021-11-26T13:59:57Z,2021,14,0,330.5833,330.5833,80.252,13.959,1005.5,2.4,-999.0,yes,yes,no,300234068341230,BD2GHI,AOML,ALLIANCE,North
2021-11-26T15:00:00Z,2021,15,0,330.625,330.625,80.25,13.984,1005.5,2.4,-999.0,yes,yes,no,300234068341230,BD2GHI,AOML,ALLIANCE,North
2021-11-26T16:00:02Z,2021,16,0,330.6667,330.6667,80.249,14.014,1005.2,2.43,-999.0,yes,yes,no,300234068341230,BD2GHI,AOML,ALLIANCE,North
2021-11-26T17:01:58Z,2021,17,2,330.7097,330.7097,80.246,14.04,1005.6,2.4,-999.0,yes,yes,no,300234068341230,BD2GHI,AOML,ALLIANCE,North
2021-11-26T18:00:00Z,2021,18,0,330.75,330.75,80.243,14.057,1005.5,2.38,-999.0,yes,yes,no,300234068341230,BD2GHI,AOML,ALLIANCE,North
2021-11-26T19:00:02Z,2021,19,0,330.7917,330.7917,80.24,14.069,1005.8,2.37,-999.0,yes,yes,no,300234068341230,BD2GHI,AOML,ALLIANCE,North
2021-11-26T20:01:58Z,2021,20,2,330.8347,330.8347,80.237,14.074,1006.2,2.33,-999.0,yes,yes,no,300234068341230,BD2GHI,AOML,ALLIANCE,North
2021-11-26T21:00:00Z,2021,21,0,330.875,330.875,80.234,14.071,1006.6,2.34,-999.0,yes,yes,no,300234068341230,BD2GHI,AOML,ALLIANCE,North
2021-11-26T22:00:02Z,2021,22,0,330.9167,330.9167,80.232,14.052,1006.1,2.33,-999.0,yes,yes,no,300234068341230,BD2GHI,AOML,ALLIANCE,North
2021-11-26T22:59:57Z,2021,23,0,330.9583,330.9583,80.229,14.022,1005.2,2.28,-999.0,yes,yes,no,300234068341230,BD2GHI,AOML,ALLIANCE,North
2021-11-27T00:00:00Z,2021,0,0,331.0,331.0,80.227,13.977,1004.7,2.2,-999.0,yes,yes,no,300234068341230,BD2GHI,AOML,ALLIANCE,North
2021-11-27T01:00:02Z,2021,1,0,331.0417,331.0417,80.226,13.921,1004.0,2.15,-999.0,yes,yes,no,300234068341230,BD2GHI,AOML,ALLIANCE,North
2021-11-27T01:59:57Z,2021,2,0,331.0833,331.0833,80.227,13.872,1003.7,2.12,-999.0,yes,yes,no,300234068341230,BD2GHI,AOML,ALLIANCE,North
2021-11-27T03:00:00Z,2021,3,0,331.125,331.125,80.229,13.819,1004.3,2.1,-999.0,yes,yes,no,300234068341230,BD2GHI,AOML,ALLIANCE,North
2021-11-27T04:00:02Z,2021,4,0,331.1667,331.1667,80.232,13.769,1004.7,2.05,-999.0,yes,yes,no,300234068341230,BD2GHI,AOML,ALLIANCE,North
2021-11-27T04:59:57Z,2021,5,0,331.2083,331.2083,80.237,13.733,1005.2,2.03,-999.0,yes,yes,no,300234068341230,BD2GHI,AOML,ALLIANCE,North
2021-11-27T06:00:00Z,2021,6,0,331.25,331.25,80.243,13.709,1005.8,2.0,-999.0,yes,yes,no,300234068341230,BD2GHI,AOML,ALLIANCE,North
2021-11-27T07:00:02Z,2021,7,0,331.2917,331.2917,80.25,13.696,1006.3,1.98,-999.0,yes,yes,no,300234068341230,BD2GHI,AOML,ALLIANCE,North
2021-11-27T07:59:57Z,2021,8,0,331.3333,331.3333,80.257,13.697,1007.0,1.99,-999.0,yes,yes,no,300234068341230,BD2GHI,AOML,ALLIANCE,North
2021-11-27T09:00:00Z,2021,9,0,331.375,331.375,80.263,13.706,1008.0,2.0,-999.0,yes,yes,no,300234068341230,BD2GHI,AOML,ALLIANCE,North
2021-11-27T10:03:56Z,2021,10,4,331.4194,331.4194,80.267,13.722,1008.6,2.01,-999.0,yes,yes,no,300234068341230,BD2GHI,AOML,ALLIANCE,North
2021-11-27T10:59:57Z,2021,11,0,331.4583,331.4583,80.27,13.737,1008.9,1.98,-999.0,yes,yes,no,300234068341230,BD2GHI,AOML,ALLIANCE,North
2021-11-27T13:00:02Z,2021,13,0,331.5417,331.5417,80.272,13.759,1009.2,2.11,-999.0,yes,yes,no,300234068341230,BD2GHI,AOML,ALLIANCE,North
2021-11-27T13:59:57Z,2021,14,0,331.5833,331.5833,80.268,13.766,1009.5,2.07,-999.0,yes,yes,no,300234068341230,BD2GHI,AOML,ALLIANCE,North
2021-11-27T15:00:00Z,2021,15,0,331.625,331.625,80.264,13.752,1009.7,2.23,-999.0,yes,yes,no,300234068341230,BD2GHI,AOML,ALLIANCE,North
2021-11-27T16:00:02Z,2021,16,0,331.6667,331.6667,80.257,13.735,1009.9,2.19,-999.0,yes,yes,no,300234068341230,BD2GHI,AOML,ALLIANCE,North
2021-11-27T16:59:57Z,2021,17,0,331.7083,331.7083,80.251,13.704,1010.0,2.19,-999.0,yes,yes,no,300234068341230,BD2GHI,AOML,ALLIANCE,North
2021-11-27T18:00:00Z,2021,18,0,331.75,331.75,80.247,13.673,1010.2,2.23,-999.0,yes,yes,no,300234068341230,BD2GHI,AOML,ALLIANCE,North
2021-11-27T19:00:02Z,2021,19,0,331.7917,331.7917,80.243,13.639,1010.3,2.22,-999.0,yes,yes,no,300234068341230,BD2GHI,AOML,ALLIANCE,North
2021-11-27T19:59:57Z,2021,20,0,331.8333,331.8333,80.241,13.596,1010.6,2.21,-999.0,yes,yes,no,300234068341230,BD2GHI,AOML,ALLIANCE,North
2021-11-27T21:00:00Z,2021,21,0,331.875,331.875,80.24,13.54,1010.7,2.21,-999.0,yes,yes,no,300234068341230,BD2GHI,AOML,ALLIANCE,North
2021-11-27T22:00:02Z,2021,22,0,331.9167,331.9167,80.239,13.476,1010.8,2.23,-999.0,yes,yes,no,300234068341230,BD2GHI,AOML,ALLIANCE,North
2021-11-27T22:59:57Z,2021,23,0,331.9583,331.9583,80.234,13.394,1010.8,2.26,-999.0,yes,yes,no,300234068341230,BD2GHI,AOML,ALLIANCE,North
2021-11-28T00:00:00Z,2021,0,0,332.0,332.0,80.236,13.292,1010.8,2.26,-999.0,yes,yes,no,300234068341230,BD2GHI,AOML,ALLIANCE,North
2021-11-28T01:00:02Z,2021,1,0,332.0417,332.0417,80.234,13.153,1010.9,2.38,-999.0,yes,yes,no,300234068341230,BD2GHI,AOML,ALLIANCE,North
2021-11-28T01:59:57Z,2021,2,0,332.0833,332.0833,80.234,13.062,1011.0,2.27,-999.0,yes,yes,no,300234068341230,BD2GHI,AOML,ALLIANCE,North
2021-11-28T03:00:00Z,2021,3,0,332.125,332.125,80.23,12.989,1011.4,2.3,-999.0,yes,yes,no,300234068341230,BD2GHI,AOML,ALLIANCE,North
2021-11-28T04:00:02Z,2021,4,0,332.1667,332.1667,80.222,12.952,1011.5,2.93,-999.0,yes,yes,no,300234068341230,BD2GHI,AOML,ALLIANCE,North
2021-11-28T04:59:57Z,2021,5,0,332.2083,332.2083,80.223,12.963,1011.5,2.95,-999.0,yes,yes,no,300234068341230,BD2GHI,AOML,ALLIANCE,North
2021-11-28T06:00:00Z,2021,6,0,332.25,332.25,80.231,12.981,1011.6,2.93,-999.0,yes,yes,no,300234068341230,BD2GHI,AOML,ALLIANCE,North
2021-11-28T07:00:02Z,2021,7,0,332.2917,332.2917,80.24,13.006,1011.8,2.92,-999.0,yes,yes,no,300234068341230,BD2GHI,AOML,ALLIANCE,North
2021-11-28T09:00:00Z,2021,9,0,332.375,332.375,80.266,13.074,1012.2,2.76,-999.0,yes,yes,no,300234068341230,BD2GHI,AOML,ALLIANCE,North
2021-11-28T10:03:56Z,2021,10,4,332.4194,332.4194,80.279,13.109,1012.2,2.84,-999.0,yes,yes,no,300234068341230,BD2GHI,AOML,ALLIANCE,North
2021-11-28T10:59:57Z,2021,11,0,332.4583,332.4583,80.29,13.139,1012.4,2.72,-999.0,yes,yes,no,300234068341230,BD2GHI,AOML,ALLIANCE,North
2021-11-28T13:00:02Z,2021,13,0,332.5417,332.5417,80.297,13.176,1012.3,2.68,-999.0,yes,yes,no,300234068341230,BD2GHI,AOML,ALLIANCE,North
2021-11-28T13:59:57Z,2021,14,0,332.5833,332.5833,80.294,13.175,1012.3,2.87,-999.0,yes,yes,no,300234068341230,BD2GHI,AOML,ALLIANCE,North
2021-11-28T15:02:00Z,2021,15,2,332.6264,332.6264,80.284,13.146,1012.4,2.93,-999.0,yes,yes,no,300234068341230,BD2GHI,AOML,ALLIANCE,North
2021-11-28T16:00:02Z,2021,16,0,332.6667,332.6667,80.273,13.145,1012.6,2.88,-999.0,yes,yes,no,300234068341230,BD2GHI,AOML,ALLIANCE,North
2021-11-28T16:59:57Z,2021,17,0,332.7083,332.7083,80.263,13.156,1012.7,2.85,-999.0,yes,yes,no,300234068341230,BD2GHI,AOML,ALLIANCE,North
2021-11-28T18:00:00Z,2021,18,0,332.75,332.75,80.254,13.165,1012.8,2.86,-999.0,yes,yes,no,300234068341230,BD2GHI,AOML,ALLIANCE,North
2021-11-28T19:03:56Z,2021,19,4,332.7944,332.7944,80.248,13.179,1013.0,2.89,-999.0,yes,yes,no,300234068341230,BD2GHI,AOML,ALLIANCE,North
2021-11-28T19:59:57Z,2021,20,0,332.8333,332.8333,80.244,13.179,1013.3,2.88,-999.0,yes,yes,no,300234068341230,BD2GHI,AOML,ALLIANCE,North
2021-11-28T21:00:00Z,2021,21,0,332.875,332.875,80.24,13.172,1013.4,2.89,-999.0,yes,yes,no,300234068341230,BD2GHI,AOML,ALLIANCE,North
2021-11-28T22:00:02Z,2021,22,0,332.9167,332.9167,80.238,13.16,1013.3,2.88,-999.0,yes,yes,no,300234068341230,BD2GHI,AOML,ALLIANCE,North
2021-11-28T22:59:57Z,2021,23,0,332.9583,332.9583,80.238,13.14,1013.8,2.88,-999.0,yes,yes,no,300234068341230,BD2GHI,AOML,ALLIANCE,North
2021-11-29T00:00:00Z,2021,0,0,333.0,333.0,80.234,13.115,1013.9,2.86,-999.0,yes,yes,no,300234068341230,BD2GHI,AOML,ALLIANCE,North
2021-11-29T01:00:02Z,2021,1,0,333.0417,333.0417,80.24,13.058,1013.9,2.84,-999.0,yes,yes,no,300234068341230,BD2GHI,AOML,ALLIANCE,North
2021-11-29T01:59:57Z,2021,2,0,333.0833,333.0833,80.242,13.0,1014.0,2.83,-999.0,yes,yes,no,300234068341230,BD2GHI,AOML,ALLIANCE,North
2021-11-29T03:00:00Z,2021,3,0,333.125,333.125,80.243,12.937,1014.1,2.78,-999.0,yes,yes,no,300234068341230,BD2GHI,AOML,ALLIANCE,North
2021-11-29T04:00:02Z,2021,4,0,333.1667,333.1667,80.243,12.87,1014.5,2.65,-999.0,yes,yes,no,300234068341230,BD2GHI,AOML,ALLIANCE,North
2021-11-29T05:03:59Z,2021,5,4,333.2111,333.2111,80.24,12.802,1014.5,2.64,-999.0,yes,yes,no,300234068341230,BD2GHI,AOML,ALLIANCE,North
2021-11-29T06:00:00Z,2021,6,0,333.25,333.25,80.237,12.751,1014.5,2.48,-999.0,yes,yes,no,300234068341230,BD2GHI,AOML,ALLIANCE,North
2021-11-29T07:00:02Z,2021,7,0,333.2917,333.2917,80.229,12.731,1014.5,2.46,-999.0,yes,yes,no,300234068341230,BD2GHI,AOML,ALLIANCE,North
2021-11-29T07:59:57Z,2021,8,0,333.3333,333.3333,80.223,12.745,1015.0,2.52,-999.0,yes,yes,no,300234068341230,BD2GHI,AOML,ALLIANCE,North
2021-11-29T09:00:00Z,2021,9,0,333.375,333.375,80.217,12.789,1014.9,2.64,-999.0,yes,yes,no,300234068341230,BD2GHI,AOML,ALLIANCE,North
2021-11-29T10:03:04Z,2021,10,3,333.4188,333.4188,80.216,12.842,1014.8,2.73,-999.0,yes,yes,no,300234068341230,BD2GHI,AOML,ALLIANCE,North
2021-11-29T11:03:59Z,2021,11,4,333.4611,333.4611,80.215,12.92,1014.3,2.85,-999.0,yes,yes,no,300234068341230,BD2GHI,AOML,ALLIANCE,North
2021-11-29T13:00:02Z,2021,13,0,333.5417,333.5417,80.219,13.091,1013.8,2.85,-999.0,yes,yes,no,300234068341230,BD2GHI,AOML,ALLIANCE,North
2021-11-29T13:59:57Z,2021,14,0,333.5833,333.5833,80.227,13.145,1013.8,2.76,-999.0,yes,yes,no,300234068341230,BD2GHI,AOML,ALLIANCE,North
2021-11-29T15:00:00Z,2021,15,0,333.625,333.625,80.234,13.179,1013.7,2.73,-999.0,yes,yes,no,300234068341230,BD2GHI,AOML,ALLIANCE,North
2021-11-29T16:00:02Z,2021,16,0,333.6667,333.6667,80.241,13.209,1013.4,2.71,-999.0,yes,yes,no,300234068341230,BD2GHI,AOML,ALLIANCE,North
2021-11-29T17:03:59Z,2021,17,4,333.7111,333.7111,80.244,13.223,1013.2,2.66,-999.0,yes,yes,no,300234068341230,BD2GHI,AOML,ALLIANCE,North
2021-11-29T18:04:01Z,2021,18,4,333.7528,333.7528,80.247,13.215,1013.3,2.57,-999.0,yes,yes,no,300234068341230,BD2GHI,AOML,ALLIANCE,North
2021-11-29T19:03:04Z,2021,19,3,333.7938,333.7938,80.249,13.182,1013.0,2.57,-999.0,yes,yes,no,300234068341230,BD2GHI,AOML,ALLIANCE,North
2021-11-29T19:59:57Z,2021,20,0,333.8333,333.8333,80.25,13.141,1012.7,2.55,-999.0,yes,yes,no,300234068341230,BD2GHI,AOML,ALLIANCE,North
2021-11-29T21:00:00Z,2021,21,0,333.875,333.875,80.249,13.072,1012.4,2.55,-999.0,yes,yes,no,300234068341230,BD2GHI,AOML,ALLIANCE,North
2021-11-29T22:00:02Z,2021,22,0,333.9167,333.9167,80.246,12.991,1012.1,2.56,-999.0,yes,yes,no,300234068341230,BD2GHI,AOML,ALLIANCE,North
2021-11-29T22:59:57Z,2021,23,0,333.9583,333.9583,80.24,12.928,1011.6,2.61,-999.0,yes,yes,no,300234068341230,BD2GHI,AOML,ALLIANCE,North
2021-11-30T00:00:00Z,2021,0,0,334.0,334.0,80.233,12.908,1011.5,2.67,-999.0,yes,yes,no,300234068341230,BD2GHI,AOML,ALLIANCE,North
2021-11-30T01:00:02Z,2021,1,0,334.0417,334.0417,80.227,12.899,1011.3,2.75,-999.0,yes,yes,no,300234068341230,BD2GHI,AOML,ALLIANCE,North
2021-11-30T01:59:57Z,2021,2,0,334.0833,334.0833,80.221,12.916,1011.1,2.72,-999.0,yes,yes,no,300234068341230,BD2GHI,AOML,ALLIANCE,North
2021-11-30T03:00:00Z,2021,3,0,334.125,334.125,80.222,12.915,1010.9,2.77,-999.0,yes,yes,no,300234068341230,BD2GHI,AOML,ALLIANCE,North
2021-11-30T04:00:02Z,2021,4,0,334.1667,334.1667,80.225,12.9,1011.0,2.61,-999.0,yes,yes,no,300234068341230,BD2GHI,AOML,ALLIANCE,North
2021-11-30T04:59:57Z,2021,5,0,334.2083,334.2083,80.229,12.889,1011.0,2.28,-999.0,yes,yes,no,300234068341230,BD2GHI,AOML,ALLIANCE,North
2021-11-30T06:00:00Z,2021,6,0,334.25,334.25,80.226,12.895,1010.9,2.32,-999.0,yes,yes,no,300234068341230,BD2GHI,AOML,ALLIANCE,North
2021-11-30T07:00:02Z,2021,7,0,334.2917,334.2917,80.222,12.918,1010.9,2.4,-999.0,yes,yes,no,300234068341230,BD2GHI,AOML,ALLIANCE,North
2021-11-30T08:01:58Z,2021,8,2,334.3347,334.3347,80.221,12.958,1011.0,2.39,-999.0,yes,yes,no,300234068341230,BD2GHI,AOML,ALLIANCE,North
2021-11-30T09:00:00Z,2021,9,0,334.375,334.375,80.225,13.003,1010.8,2.39,-999.0,yes,yes,no,300234068341230,BD2GHI,AOML,ALLIANCE,North
2021-11-30T10:00:02Z,2021,10,0,334.4167,334.4167,80.233,13.055,1010.7,2.32,-999.0,yes,yes,no,300234068341230,BD2GHI,AOML,ALLIANCE,North
2021-11-30T12:02:00Z,2021,12,2,334.5014,334.5014,80.25,13.169,1010.9,2.24,-999.0,yes,yes,no,300234068341230,BD2GHI,AOML,ALLIANCE,North
2021-11-30T13:00:02Z,2021,13,0,334.5417,334.5417,80.26,13.235,1010.8,2.21,-999.0,yes,yes,no,300234068341230,BD2GHI,AOML,ALLIANCE,North
2021-11-30T13:59:57Z,2021,14,0,334.5833,334.5833,80.266,13.317,1010.8,2.2,-999.0,yes,yes,no,300234068341230,BD2GHI,AOML,ALLIANCE,North
2021-11-30T15:00:00Z,2021,15,0,334.625,334.625,80.267,13.377,1011.1,2.15,-999.0,yes,yes,no,300234068341230,BD2GHI,AOML,ALLIANCE,North
2021-11-30T16:00:02Z,2021,16,0,334.6667,334.6667,80.264,13.425,1011.2,2.14,-999.0,yes,yes,no,300234068341230,BD2GHI,AOML,ALLIANCE,North
2021-11-30T16:59:57Z,2021,17,0,334.7083,334.7083,80.257,13.449,1011.5,2.12,-999.0,yes,yes,no,300234068341230,BD2GHI,AOML,ALLIANCE,North
2021-11-30T18:04:01Z,2021,18,4,334.7528,334.7528,-90.0,-180.0,1011.6,2.17,-999.0,yes,yes,no,300234068341230,BD2GHI,AOML,ALLIANCE,North
2021-11-30T19:02:03Z,2021,19,2,334.7931,334.7931,80.244,13.409,1011.8,2.16,-999.0,yes,yes,no,300234068341230,BD2GHI,AOML,ALLIANCE,North
2021-11-30T19:59:57Z,2021,20,0,334.8333,334.8333,80.237,13.369,1012.0,2.21,-999.0,yes,yes,no,300234068341230,BD2GHI,AOML,ALLIANCE,North
2021-11-30T21:00:00Z,2021,21,0,334.875,334.875,80.232,13.314,1012.5,2.21,-999.0,yes,yes,no,300234068341230,BD2GHI,AOML,ALLIANCE,North
2021-11-30T22:00:02Z,2021,22,0,334.9167,334.9167,80.229,13.255,1012.6,2.21,-999.0,yes,yes,no,300234068341230,BD2GHI,AOML,ALLIANCE,North
2021-11-30T22:59:57Z,2021,23,0,334.9583,334.9583,80.229,13.196,1012.7,2.21,-999.0,yes,yes,no,300234068341230,BD2GHI,AOML,ALLIANCE,North
2021-12-01T00:00:00Z,2021,0,0,335.0,335.0,80.228,13.155,1012.8,2.29,-999.0,yes,yes,no,300234068341230,BD2GHI,AOML,ALLIANCE,North
2021-12-01T01:00:02Z,2021,1,0,335.0417,335.0417,80.226,13.119,1013.1,2.64,-999.0,yes,yes,no,300234068341230,BD2GHI,AOML,ALLIANCE,North
2021-12-01T01:59:57Z,2021,2,0,335.0833,335.0833,80.221,13.091,1013.3,2.68,-999.0,yes,yes,no,300234068341230,BD2GHI,AOML,ALLIANCE,North
2021-12-01T03:00:00Z,2021,3,0,335.125,335.125,80.216,13.078,1013.6,2.74,-999.0,yes,yes,no,300234068341230,BD2GHI,AOML,ALLIANCE,North
2021-12-01T04:00:02Z,2021,4,0,335.1667,335.1667,80.213,13.066,1014.2,2.89,-999.0,yes,yes,no,300234068341230,BD2GHI,AOML,ALLIANCE,North
2021-12-01T04:59:57Z,2021,5,0,335.2083,335.2083,80.211,13.06,1014.6,2.82,-999.0,yes,yes,no,300234068341230,BD2GHI,AOML,ALLIANCE,North
2021-12-01T06:00:00Z,2021,6,0,335.25,335.25,80.206,13.052,1014.9,3.02,-999.0,yes,yes,no,300234068341230,BD2GHI,AOML,ALLIANCE,North
2021-12-01T07:00:02Z,2021,7,0,335.2917,335.2917,80.202,13.04,1015.5,3.07,-999.0,yes,yes,no,300234068341230,BD2GHI,AOML,ALLIANCE,North
2021-12-01T07:59:57Z,2021,8,0,335.3333,335.3333,80.197,13.029,1015.6,3.1,-999.0,yes,yes,no,300234068341230,BD2GHI,AOML,ALLIANCE,North